Weather History for KASJ - January, 2013

Change the Weather History Date:

Tuesday, January 15, 2013

  Actual Average (KEMV) Record (KEMV)
Temperature  
Mean Temperature 48 °F -  
Max Temperature 50 °F 47 °F 71 °F (2007)
Min Temperature 45 °F 22 °F 9 °F (1988)
Degree Days  
Heating Degree Days 16    
Moisture  
Dew Point 43 °F    
Average Humidity 91    
Maximum Humidity 93    
Minimum Humidity 89    
Precipitation  
Precipitation 0.02 in - - ()
Sea Level Pressure  
Sea Level Pressure 30.21 in    
Wind  
Wind Speed 7 mph (NNE)    
Max Wind Speed 14 mph    
Max Gust Speed 21 mph    
Visibility 6 miles    
Events Fog , Rain    
Averages and records for this station are not official NWS values.
T = Trace of Precipitation, MM = Missing Value Source: NWS Daily Summary

Daily Weather History Graph

Daily Weather History Graph

Search for Another Location

Airport or City:

Trip Planner

Search our weather history database for the weather conditions in past years. The results will help you decide how hot, cold, wet, or windy it might be!

Date:

Astronomy

Jan. 15, 2013 Rise Set
Actual Time 7:19 AM EST 5:17 PM EST
Civil Twilight 6:51 AM EST 5:45 PM EST
Nautical Twilight 6:19 AM EST 6:17 PM EST
Astronomical Twilight 5:48 AM EST 6:48 PM EST
Moon 9:32 AM EST (1/15) 9:55 PM EST (1/15)
Length of Visible Light 10h 54m
Length of Day
9h 58m
Waxing Crescent, 19% of the Moon is Illuminated
Jan 15
Waxing Crescent
Jan 18
First Quarter
Jan 26
Full
Feb 3
Last Quarter
Feb 10
New

Hourly Weather History & Observations

Time (EST) Temp. Windchill Dew Point Humidity Pressure Visibility Wind Dir Wind Speed Gust Speed Precip Events Conditions
12:15 AM 52.7 °F - 50.0 °F 91% 30.19 in 10.0 mi NNE 12.7 mph - N/A   Overcast
12:35 AM 52.7 °F - 49.5 °F 89% 30.19 in 10.0 mi NNE 10.4 mph - N/A   Overcast
12:55 AM 50.2 °F - 47.1 °F 89% 30.20 in 10.0 mi North 11.5 mph 20.7 mph N/A   Overcast
1:15 AM 50.0 °F - 46.9 °F 89% 30.22 in 10.0 mi North 12.7 mph 18.4 mph N/A   Overcast
1:35 AM 49.3 °F - 46.2 °F 89% 30.23 in 10.0 mi North 13.8 mph - N/A   Overcast
1:55 AM 46.2 °F 40.5 °F 43.3 °F 90% 30.23 in 5.0 mi North 12.7 mph - N/A   Overcast
2:15 AM 45.1 °F 39.1 °F 42.4 °F 90% 30.24 in 5.0 mi North 12.7 mph 18.4 mph N/A   Overcast
2:35 AM 45.1 °F 40.3 °F 42.8 °F 91% 30.24 in 4.0 mi North 9.2 mph - N/A   Overcast
2:55 AM 45.1 °F 39.1 °F 42.8 °F 91% 30.24 in 4.0 mi North 12.7 mph 20.7 mph N/A Rain Light Rain
3:15 AM 45.1 °F 40.8 °F 42.8 °F 91% 30.22 in 5.0 mi NNE 8.1 mph 17.3 mph N/A Rain Light Rain
3:35 AM 45.1 °F 41.4 °F 42.8 °F 91% 30.23 in 4.0 mi NNE 6.9 mph - N/A   Light Drizzle
3:55 AM 45.1 °F 40.8 °F 42.8 °F 91% 30.23 in 7.0 mi NNE 8.1 mph - N/A   Overcast
4:15 AM 45.1 °F 41.4 °F 42.8 °F 91% 30.23 in 7.0 mi NNE 6.9 mph - N/A   Overcast
4:55 AM 45.1 °F 42.0 °F 42.8 °F 91% 30.20 in 5.0 mi NE 5.8 mph - N/A   Overcast
5:35 AM 45.1 °F 42.0 °F 42.8 °F 91% 30.20 in 7.0 mi NNE 5.8 mph - N/A   Overcast
5:55 AM 45.1 °F 42.0 °F 42.8 °F 91% 30.22 in 7.0 mi North 5.8 mph - N/A   Overcast
6:15 AM 45.1 °F 42.8 °F 42.8 °F 91% 30.21 in 7.0 mi NNE 4.6 mph - N/A   Overcast
6:35 AM 45.1 °F 42.8 °F 42.8 °F 91% 30.21 in 5.0 mi NNE 4.6 mph - N/A   Overcast
6:55 AM 45.1 °F 42.0 °F 42.8 °F 91% 30.20 in 5.0 mi NNE 5.8 mph - N/A   Overcast
7:15 AM 45.1 °F 42.0 °F 42.8 °F 91% 30.20 in 7.0 mi NE 5.8 mph - N/A   Overcast
7:35 AM 45.1 °F 43.7 °F 42.8 °F 91% 30.21 in 5.0 mi NE 3.5 mph - N/A   Overcast
7:55 AM 45.1 °F 43.7 °F 42.8 °F 91% 30.22 in 3.0 mi ENE 3.5 mph - N/A   Overcast
8:15 AM 45.1 °F 43.7 °F 42.8 °F 91% 30.23 in 3.0 mi NNE 3.5 mph - N/A   Overcast
8:35 AM 45.1 °F 42.8 °F 42.8 °F 91% 30.23 in 2.5 mi NNE 4.6 mph - N/A Rain Rain
8:55 AM 45.1 °F 43.7 °F 43.0 °F 92% 30.24 in 2.5 mi NNE 3.5 mph - N/A   Drizzle
9:15 AM 45.1 °F 43.7 °F 43.0 °F 92% 30.25 in 4.0 mi NNE 3.5 mph - N/A   Overcast
9:55 AM 45.1 °F 42.8 °F 42.8 °F 91% 30.26 in 7.0 mi North 4.6 mph - N/A   Overcast
10:15 AM 45.1 °F 42.0 °F 42.8 °F 91% 30.26 in 4.0 mi North 5.8 mph - N/A   Overcast
10:35 AM 45.1 °F 43.7 °F 42.8 °F 91% 30.27 in 5.0 mi NNW 3.5 mph - N/A Rain Light Rain
10:55 AM 45.1 °F 41.4 °F 42.8 °F 91% 30.25 in 4.0 mi North 6.9 mph - N/A   Light Drizzle
11:15 AM 45.1 °F 42.0 °F 42.8 °F 91% 30.25 in 5.0 mi North 5.8 mph - N/A Rain Rain
11:35 AM 45.1 °F 42.0 °F 42.8 °F 91% 30.24 in 5.0 mi North 5.8 mph - 0.01 in Rain Light Rain
11:55 AM 45.1 °F 41.4 °F 42.8 °F 91% 30.24 in 10.0 mi North 6.9 mph - 0.02 in   Overcast
12:15 PM 45.1 °F 39.9 °F 42.8 °F 91% 30.23 in 7.0 mi North 10.4 mph - N/A   Drizzle
12:35 PM 45.1 °F 40.3 °F 42.8 °F 91% 30.23 in 10.0 mi North 9.2 mph - N/A   Light Drizzle
12:55 PM 45.1 °F 40.8 °F 42.8 °F 91% 30.23 in 10.0 mi North 8.1 mph - N/A   Overcast
1:15 PM 45.1 °F 40.8 °F 42.8 °F 91% 30.22 in 10.0 mi NNE 8.1 mph - N/A   Overcast
1:35 PM 45.1 °F 40.8 °F 42.8 °F 91% 30.22 in 10.0 mi NNE 8.1 mph - N/A   Overcast
1:55 PM 45.1 °F 41.4 °F 42.4 °F 90% 30.20 in 10.0 mi NNE 6.9 mph - N/A   Overcast
2:15 PM 45.1 °F 41.4 °F 42.4 °F 90% 30.20 in 10.0 mi NE 6.9 mph - N/A   Overcast
2:55 PM 45.1 °F 41.4 °F 42.4 °F 90% 30.20 in 10.0 mi NNE 6.9 mph - N/A   Overcast
3:15 PM 45.1 °F 42.0 °F 42.4 °F 90% 30.20 in 10.0 mi NNE 5.8 mph - N/A   Overcast
3:35 PM 45.1 °F 42.8 °F 42.8 °F 91% 30.20 in 10.0 mi NNE 4.6 mph - N/A   Overcast
3:55 PM 45.1 °F 42.8 °F 42.8 °F 91% 30.20 in 10.0 mi NNE 4.6 mph - N/A   Overcast
4:15 PM 45.1 °F - 42.8 °F 91% 30.20 in 10.0 mi Calm Calm - N/A   Overcast
4:35 PM 45.1 °F 42.8 °F 42.4 °F 90% 30.20 in 10.0 mi NNE 4.6 mph - N/A   Overcast
4:55 PM 45.1 °F 43.7 °F 42.4 °F 90% 30.21 in 10.0 mi NNE 3.5 mph - N/A   Overcast
5:15 PM 45.1 °F 42.8 °F 42.4 °F 90% 30.20 in 10.0 mi ENE 4.6 mph - N/A   Overcast
5:35 PM 45.1 °F - 42.4 °F 90% 30.19 in 7.0 mi Calm Calm - N/A   Overcast
5:55 PM 45.1 °F - 42.8 °F 91% 30.20 in 7.0 mi Calm Calm - N/A   Overcast
6:15 PM 45.1 °F - 42.8 °F 91% 30.21 in 7.0 mi Calm Calm - N/A   Overcast
6:35 PM 45.1 °F - 42.8 °F 91% 30.21 in 3.0 mi Calm Calm - N/A   Overcast
6:55 PM 45.1 °F - 42.8 °F 91% 30.22 in 2.5 mi Calm Calm - N/A   Overcast
7:15 PM 45.1 °F - 43.0 °F 92% 30.22 in 2.0 mi Calm Calm - N/A   Overcast
7:55 PM 45.1 °F - 43.0 °F 92% 30.19 in 1.8 mi Calm Calm - N/A   Overcast
8:15 PM 45.1 °F 43.7 °F 43.0 °F 92% 30.17 in 1.5 mi NE 3.5 mph - N/A   Overcast
8:35 PM 45.1 °F - 43.0 °F 92% 30.17 in 2.5 mi Calm Calm - N/A   Overcast
8:55 PM 45.1 °F - 43.0 °F 92% 30.17 in 2.0 mi Calm Calm - N/A   Overcast
9:15 PM 45.1 °F - 43.0 °F 92% 30.16 in 1.8 mi Calm Calm - N/A   Overcast
9:35 PM 45.1 °F - 43.0 °F 92% 30.15 in 1.5 mi Calm Calm - N/A   Overcast
9:55 PM 45.1 °F 43.7 °F 43.0 °F 92% 30.14 in 1.0 mi NE 3.5 mph - N/A   Overcast
10:15 PM 45.1 °F - 43.3 °F 93% 30.13 in 0.8 mi Calm Calm - N/A   Overcast
10:35 PM 45.1 °F - 43.3 °F 93% 30.13 in 0.8 mi Calm Calm - N/A   Overcast
10:55 PM 45.1 °F - 43.3 °F 93% 30.12 in 0.5 mi Calm Calm - N/A Fog Fog
11:15 PM 45.1 °F - 43.3 °F 93% 30.11 in 0.8 mi Calm Calm - N/A Rain Light Rain
11:55 PM 45.1 °F - 43.3 °F 93% 30.10 in 0.8 mi Calm Calm - N/A   Overcast